Flag for U.S.A. Weather past 2 weeks in Duluth, Minnesota, U.S.A.

Now
61 °F

Mostly cloudy.


Feels Like: 61 °F
Forecast: 56 / 72 °F
Wind: No wind

Location: Sky Harbor Airport

Current Time: Aug 31, 2014 at 6:06:14 AM

Latest Report: Aug 31, 2014 at 5:33 AM


Visibility: 10 mi

Pressure: 29.90 "Hg

Humidity: 88%

Dew point: 57 °F

Location of DuluthLocation

Historic Weather in Duluth — Graph

°F

Duluth temperature yesterday

Maximum temperature yesterday: 66 °F (at 4:13 PM)
Minimum temperature yesterday: 63 °F (at 12:13 AM)
Average temperature yesterday: 64 °F

Past Weeks' High & Low Weather Summary

 TemperatureHumidityPressure
High79 °F (Aug 25, 11:53 AM)100% (Aug 17, 5:54 PM)30.24 "Hg (Aug 17, 5:54 PM)
Low55 °F (Aug 26, 4:53 AM)47% (Aug 25, 2:33 PM)29.65 "Hg (Aug 19, 1:53 AM)
Average63 °F88%29.94 "Hg
* Reported Aug 16 4:13 AM — Aug 31 4:53 AM, Duluth, Weather by CustomWeather, © 2014

Note: Actual official high and low records may vary slightly from our data, if they occured in-between our weather recording intervals... More about our weather records

Advertising

Duluth weather history for previous 24 hours

 ConditionsComfort  
Time TempWeatherWind HumidityBarometerVisibility
4:53 AM
Aug 31
61 °FOvercast.No wind88%29.89 "Hg10 mi
4:34 AM61 °FOvercast.3 mph88%29.90 "Hg10 mi
4:13 AM61 °FOvercast.5 mph88%29.90 "Hg10 mi
3:53 AM61 °FPartly cloudy.3 mph88%29.91 "Hg10 mi
3:34 AM61 °FOvercast.3 mph88%29.91 "Hg10 mi
3:13 AM63 °FMostly cloudy.No wind83%29.92 "Hg10 mi
2:53 AM63 °FOvercast.3 mph83%29.93 "Hg10 mi
2:34 AM63 °FPassing clouds.No wind88%29.93 "Hg10 mi
2:13 AM61 °FClear.No wind88%29.93 "Hg10 mi
1:53 AM63 °FPassing clouds.No wind88%29.92 "Hg10 mi
1:34 AM63 °FMostly cloudy.3 mph88%29.91 "Hg10 mi
12:53 AM63 °FClear.9 mph94%29.90 "Hg10 mi
12:34 AM63 °FPassing clouds.12 mph94%29.89 "Hg10 mi
12:13 AM63 °FPassing clouds.7 mph94%29.90 "Hg10 mi
11:54 PM
Aug 30
63 °FMostly cloudy.5 mph94%29.92 "Hg10 mi
11:33 PM63 °FMostly cloudy.No wind94%29.92 "Hg10 mi
11:14 PM63 °FOvercast.No wind94%29.92 "Hg10 mi
10:53 PM63 °FOvercast.3 mph94%29.91 "Hg10 mi
10:33 PM63 °FOvercast.3 mph94%29.92 "Hg10 mi
10:14 PM64 °FOvercast.7 mph88%29.92 "Hg10 mi
9:53 PM64 °FMostly cloudy.8 mph88%29.91 "Hg10 mi
9:34 PM64 °FOvercast.9 mph88%29.91 "Hg10 mi
9:13 PM64 °FOvercast.9 mph88%29.91 "Hg10 mi
8:53 PM64 °FOvercast.12 mph88%29.90 "Hg10 mi
8:33 PM64 °FCloudy.10 mph88%29.91 "Hg10 mi
8:13 PM63 °FOvercast.10 mph94%29.90 "Hg10 mi
7:54 PM63 °FMore clouds than sun.12 mph94%29.90 "Hg10 mi
7:33 PM63 °FMostly cloudy.13 mph94%29.89 "Hg10 mi
7:13 PM63 °FOvercast.13 mph94%29.89 "Hg10 mi
6:53 PM64 °FMostly cloudy.15 mph88%29.89 "Hg10 mi
6:34 PM64 °FPartly sunny.12 mph88%29.88 "Hg10 mi
6:13 PM64 °FPartly sunny.9 mph88%29.88 "Hg10 mi
5:54 PM64 °FBroken clouds.10 mph88%29.88 "Hg10 mi
5:33 PM64 °FMore clouds than sun.8 mph88%29.88 "Hg10 mi
5:14 PM64 °FMostly cloudy.9 mph88%29.88 "Hg10 mi
4:53 PM66 °FPartly sunny.9 mph88%29.89 "Hg10 mi
4:33 PM66 °FScattered clouds.10 mph88%29.88 "Hg10 mi
4:13 PM66 °FBroken clouds.9 mph88%29.88 "Hg10 mi
3:54 PM64 °FMostly cloudy.9 mph94%29.88 "Hg10 mi
3:33 PM64 °FOvercast.7 mph88%29.88 "Hg10 mi
3:13 PM64 °FOvercast.6 mph94%29.88 "Hg10 mi
2:53 PM64 °FOvercast.6 mph94%29.88 "Hg10 mi
2:33 PM64 °FOvercast.No wind88%29.88 "Hg10 mi
2:13 PM64 °FOvercast.3 mph88%29.88 "Hg10 mi
1:53 PM64 °FMore clouds than sun.5 mph94%29.88 "Hg10 mi
1:13 PM64 °FMore clouds than sun.No wind88%29.87 "Hg10 mi
12:34 PM64 °FRain. Mostly cloudy.No wind88%29.87 "Hg4 mi
11:53 AM64 °FMostly cloudy.5 mph88%29.87 "Hg10 mi
11:33 AM64 °FMostly cloudy.No wind88%29.87 "Hg10 mi
11:13 AM64 °FMostly cloudy.No wind88%29.87 "Hg10 mi
10:54 AM64 °FOvercast.3 mph88%29.87 "Hg10 mi
10:33 AM64 °FOvercast.5 mph94%29.86 "Hg10 mi
10:13 AM64 °FMostly cloudy.3 mph88%29.86 "Hg10 mi
9:54 AM64 °FMore clouds than sun.5 mph88%29.86 "Hg10 mi
9:33 AM64 °FMore clouds than sun.5 mph88%29.85 "Hg10 mi
9:13 AM64 °FPartly sunny.7 mph88%29.85 "Hg10 mi
8:54 AM64 °FMore clouds than sun.8 mph88%29.84 "Hg10 mi
8:33 AM64 °FOvercast.6 mph88%29.85 "Hg10 mi
8:13 AM64 °FPartly sunny.7 mph88%29.85 "Hg10 mi
7:54 AM63 °FScattered clouds.8 mph94%29.84 "Hg10 mi
7:33 AM63 °FScattered clouds.9 mph94%29.84 "Hg10 mi
6:53 AM63 °FPassing clouds.6 mph94%29.83 "Hg10 mi
6:33 AM63 °FMostly cloudy.3 mph94%29.82 "Hg10 mi
6:13 AM63 °FFog.No wind94%29.82 "Hg1 mi
Weather by CustomWeather, © 2014

See weather overviewHow to use our weather pages